sat.trackr.live / text

‹ back to catalog

KUIPER-00133

NORAD 65764 · 2025-217C

PAYLOAD ACTIVE UNKNOWN

§ Identity

Operator
Country
US
Launch date
2025-09-25
Launch site
AFETR
Launch vehicle
Mass (kg)
RCS (m²)

External: N2YO · Heavens-Above · Gunter

§ Orbital elements

Epoch: 2026-05-25T01:58:49.317600Z

Period
97.30 min
Inclination
51.9027°
Eccentricity
0.0000740
Mean motion
14.79937827 rev/d
Perigee alt
629.0 km
Apogee alt
630.0 km
Semi-major
7,007.7 km
B*
1.3503e-4
RAAN
75.3379°
Arg perigee
77.7647°
Mean anomaly
282.3398°
Rev number
3,605

§ Raw data

KUIPER-001331 65764U 25217C   26145.08251525  .00000808  00000+0  13503-3 0  99912 65764  51.9027  75.3379 0000740  77.7647 282.3398 14.79937827 36053

JSON: /api/v1/satellites/65764 · /tle

For live sub-satellite position, see the globe view (requires WebGL).

§ Visibility from observer

Set your observer location to see the next 7 days of passes ≥ 10°. The values pass through the URL so the page stays shareable.

No JS? Fill the form by hand. The geolocation button needs JavaScript.